CW5629 Weather Reports


Display with metric or nautical units.
time (UTC)temp
F
wind
direction
speed
MPH
gust
MPH
rain 1hr
in
rain 24hr
in
rain mn
in
humidity
%
barometer
mb
20260902130124 68 181 0.0 4.0 0.00 0.28 0.06 89 1016.5
20260902125116 68 223 1.0 4.0 0.00 0.28 0.06 88 1016.6
20260902124156 69 43 0.0 4.0 0.00 0.28 0.06 89 1016.6
20260902123140 68 319 1.0 8.0 0.00 0.28 0.06 88 1016.7
20260902122152 68 234 2.0 6.0 0.00 0.28 0.06 88 1016.7
20260902121124 67 66 0.0 7.0 0.00 0.28 0.06 89 1016.6
20260902120130 67 47 0.0 4.0 0.00 0.28 0.06 90 1016.7
20260902115144 67 209 1.0 3.0 0.00 0.28 0.06 89 1016.9
20260902114115 67 236 0.0 4.0 0.00 0.28 0.06 89 1017.1
20260902113121 67 221 0.0 5.0 0.00 0.28 0.06 89 1017.2
20260902112114 67 224 1.0 5.0 0.00 0.28 0.06 90 1017.2
20260902111129 66 196 0.0 6.0 0.00 0.28 0.06 90 1017.3
20260902110124 66 178 1.0 6.0 0.00 0.28 0.06 89 1017.4
20260902105134 66 274 1.0 7.0 0.00 0.28 0.06 88 1017.5
20260902104120 66 236 1.0 6.0 0.00 0.28 0.06 88 1017.5
20260902103133 66 252 1.0 5.0 0.00 0.28 0.06 88 1017.6
20260902102119 67 162 2.0 9.0 0.00 0.28 0.06 87 1017.5
20260902101112 67 267 1.0 7.0 0.00 0.28 0.06 88 1017.6
20260902100119 66 217 1.0 5.0 0.00 0.28 0.06 88 1017.5
20260902095112 66 226 0.0 4.0 0.00 0.28 0.06 90 1017.5
20260902094144 65 217 1.0 5.0 0.00 0.28 0.06 90 1017.6
20260902093136 65 199 1.0 7.0 0.00 0.28 0.06 92 1017.6
20260902092120 64 223 1.0 6.0 0.00 0.28 0.06 92 1017.6
20260902091132 64 240 0.0 2.0 0.00 0.28 0.06 92 1017.7
20260902090117 64 186 0.0 2.0 0.00 0.28 0.06 93 1017.7
20260902085130 63 88 0.0 5.0 0.00 0.28 0.06 93 1017.6
20260902084116 63 205 0.0 2.0 0.00 0.28 0.06 94 1017.6
20260902083111 62 78 0.0 2.0 0.00 0.28 0.06 94 1017.7
20260902082117 62 247 0.0 4.0 0.04 0.28 0.06 94 1018.0
20260902081129 61 184 0.0 2.0 0.04 0.28 0.06 94 1017.9
20260902080121 61 225 0.0 3.0 0.12 0.28 0.06 93 1017.9
20260902075133 61 193 0.0 2.0 0.20 0.28 0.06 93 1017.9
20260902074119 61 226 0.0 0.0 0.28 0.28 0.06 93 1017.9
20260902073131 62 207 0.0 0.0 0.28 0.28 0.06 93 1017.7
20260902072116 62 241 0.0 0.0 0.24 0.24 0.05 94 1017.8
20260902071111 62 210 0.0 0.0 0.24 0.24 0.05 94 1017.8
20260902070115 62 199 0.0 0.0 0.16 0.16 0.03 93 1017.9
20260902065148 62 217 0.0 0.0 0.08 0.08 0.02 94 1017.8
20260902064120 62 194 0.0 0.0 0.00 0.00 0.00 94 1017.9
20260902063134 62 207 0.0 0.0 0.00 0.00 0.00 94 1017.7
20260902062117 62 209 0.0 0.0 0.00 0.00 0.00 94 1017.7
20260902061130 61 214 0.0 0.0 0.00 0.00 0.00 94 1017.5
20260902060116 61 216 0.0 0.0 0.00 0.00 0.00 94 1017.5
20260902055129 61 216 0.0 0.0 0.00 0.00 0.00 94 1017.8
20260902054118 61 211 0.0 0.0 0.00 0.00 0.00 94 1018.0
20260902053113 61 217 0.0 0.0 0.00 0.00 0.00 94 1017.7
20260902052117 61 214 0.0 0.0 0.00 0.00 0.00 94 1017.9
20260902051110 60 214 0.0 0.0 0.00 0.00 0.00 94 1017.8
20260902050116 60 201 0.0 0.0 0.00 0.00 0.00 94 1017.9
20260902045128 60 208 0.0 0.0 0.00 0.00 0.00 94 1018.0
20260902044120 60 215 0.0 0.0 0.00 0.00 0.00 93 1018.2
20260902043125 60 215 0.0 0.0 0.00 0.00 0.00 93 1018.1
20260902042119 60 215 0.0 0.0 0.00 0.00 0.00 93 1018.2
20260902041133 60 215 0.0 0.0 0.00 0.00 0.00 93 1018.3
20260902040138 60 215 0.0 0.0 0.00 0.00 0.00 93 1018.3
20260902035110 59 215 0.0 0.0 0.00 0.00 0.00 92 1018.4
20260902034116 59 215 0.0 0.0 0.00 0.00 0.00 92 1018.4
20260902033129 59 214 0.0 0.0 0.00 0.00 0.00 91 1018.6
20260902032142 60 214 0.0 0.0 0.00 0.00 0.00 91 1018.6
20260902031133 60 214 0.0 0.0 0.00 0.00 0.00 91 1018.6
20260902030117 60 205 0.0 0.0 0.00 0.00 0.00 91 1018.8
20260902025130 59 205 0.0 0.0 0.00 0.00 0.00 90 1018.8
20260902024117 60 205 0.0 0.0 0.00 0.00 0.00 90 1018.9
20260902023128 60 205 0.0 0.0 0.00 0.00 0.00 90 1018.9
20260902022111 59 205 0.0 0.0 0.00 0.00 0.00 89 1019.1
20260902021123 59 205 0.0 0.0 0.00 0.00 0.00 89 1019.1
20260902020136 60 205 0.0 0.0 0.00 0.00 0.00 88 1019.0
20260902015123 60 205 0.0 0.0 0.00 0.00 0.00 88 1019.0
20260902014136 60 205 0.0 0.0 0.00 0.00 0.00 89 1019.2
20260902013129 60 205 0.0 0.0 0.00 0.00 0.00 89 1019.5
20260902012113 60 205 0.0 0.0 0.00 0.00 0.00 89 1019.5
20260902011126 60 205 0.0 0.0 0.00 0.00 0.00 88 1019.4
20260902010111 60 204 0.0 0.0 0.00 0.00 0.00 88 1019.4
20260902005123 61 204 0.0 0.0 0.00 0.00 0.00 88 1019.4
20260902004116 61 204 0.0 0.0 0.00 0.00 0.00 88 1019.5
20260902003123 61 204 0.0 0.0 0.00 0.00 0.00 88 1019.6
20260902002116 61 204 0.0 0.0 0.00 0.00 0.00 88 1019.8
20260902001129 61 204 0.0 0.0 0.00 0.00 0.00 88 1019.9
20260902000119 61 204 0.0 0.0 0.00 0.00 0.00 88 1019.9
20260901235147 61 204 0.0 0.0 0.00 0.00 0.00 87 1020.0
20260901234139 61 204 0.0 0.0 0.00 0.00 0.00 87 1020.1
20260901233124 61 204 0.0 0.0 0.00 0.00 0.00 87 1019.9
20260901232118 61 204 0.0 0.0 0.00 0.00 0.00 86 1020.0
20260901231131 61 205 0.0 0.0 0.00 0.00 0.00 86 1020.1
20260901230118 61 205 0.0 0.0 0.00 0.00 0.00 86 1020.1
20260901225113 61 198 0.0 1.0 0.00 0.00 0.00 86 1019.9
20260901224118 61 228 0.0 1.0 0.00 0.00 0.00 87 1019.9
20260901223151 62 201 0.0 0.0 0.00 0.00 0.00 87 1019.9
20260901222122 62 233 0.0 0.0 0.00 0.00 0.00 87 1019.7
20260901221137 62 233 0.0 0.0 0.00 0.00 0.00 86 1019.7
20260901220120 62 240 0.0 0.0 0.00 0.00 0.00 86 1019.6
20260901215113 62 224 0.0 0.0 0.00 0.00 0.00 86 1019.6
20260901214146 62 224 0.0 0.0 0.00 0.00 0.00 86 1019.7
20260901213137 62 224 0.0 1.0 0.00 0.00 0.00 86 1019.7
20260901212150 62 224 0.0 0.0 0.00 0.00 0.00 85 1019.8
20260901211113 62 224 0.0 0.0 0.00 0.00 0.00 85 1019.9
20260901210127 62 224 0.0 0.0 0.00 0.00 0.00 84 1020.0
20260901205112 63 224 0.0 0.0 0.00 0.00 0.00 84 1020.0
20260901204125 63 224 0.0 0.0 0.00 0.00 0.00 83 1020.1
20260901203111 63 224 0.0 0.0 0.00 0.00 0.00 83 1020.0
20260901202122 63 225 0.0 0.0 0.00 0.00 0.00 83 1020.1
20260901201136 63 225 0.0 0.0 0.00 0.00 0.00 82 1020.2
20260901200122 63 224 0.0 0.0 0.00 0.00 0.00 82 1020.2
20260901195135 63 226 0.0 0.0 0.00 0.00 0.00 81 1020.0
20260901194121 63 323 0.0 0.0 0.00 0.00 0.00 79 1020.2
20260901193114 63 323 0.0 0.0 0.00 0.00 0.00 78 1020.2
20260901192120 63 323 0.0 0.0 0.00 0.00 0.00 78 1020.0
20260901191134 63 323 0.0 0.0 0.00 0.00 0.00 77 1019.9
20260901190127 63 323 0.0 0.0 0.00 0.00 0.00 77 1019.9
20260901185113 64 323 0.0 0.0 0.00 0.00 0.00 77 1019.8
20260901184147 64 323 0.0 2.0 0.00 0.00 0.00 76 1019.8
20260901183119 64 213 0.0 0.0 0.00 0.00 0.00 76 1019.9
20260901182134 64 196 0.0 3.0 0.00 0.00 0.00 75 1020.0
20260901181118 65 210 0.0 3.0 0.00 0.00 0.00 75 1020.1
20260901180112 66 210 1.0 5.0 0.00 0.00 0.00 73 1020.0
20260901175142 66 198 0.0 3.0 0.00 0.00 0.00 72 1019.9
20260901174127 66 202 0.0 4.0 0.00 0.00 0.00 70 1020.1
20260901173140 67 211 0.0 2.0 0.00 0.00 0.00 69 1020.0
20260901172131 67 214 0.0 3.0 0.00 0.00 0.00 69 1020.1
20260901171124 67 184 0.0 1.0 0.00 0.00 0.00 69 1020.0
20260901170156 67 233 0.0 2.0 0.00 0.00 0.00 70 1020.0
20260901165121 67 236 0.0 4.0 0.00 0.00 0.00 69 1020.0
20260901164115 68 205 0.0 3.0 0.00 0.00 0.00 68 1019.8
20260901163121 69 212 1.0 3.0 0.00 0.00 0.00 66 1019.7
20260901162141 69 203 0.0 0.0 0.00 0.00 0.00 69 1019.6
20260901161113 68 205 0.0 3.0 0.00 0.00 0.00 69 1019.9
20260901160124 68 201 0.0 2.0 0.00 0.00 0.00 69 1020.0
20260901155130 68 200 0.0 3.0 0.00 0.00 0.00 67 1020.0
20260901154143 69 217 0.0 4.0 0.00 0.00 0.00 67 1019.9
20260901153135 68 129 0.0 2.0 0.00 0.00 0.00 68 1020.1
20260901152122 68 240 0.0 6.0 0.00 0.00 0.00 67 1020.2
20260901151116 69 117 0.0 4.0 0.00 0.00 0.00 64 1019.9
20260901150148 70 162 1.0 3.0 0.00 0.00 0.00 60 1019.9
20260901145113 71 212 1.0 4.0 0.00 0.00 0.00 59 1019.8
20260901144127 70 209 0.0 5.0 0.00 0.00 0.00 60 1019.8
20260901143136 69 223 0.0 3.0 0.00 0.00 0.00 60 1019.8
20260901142123 70 200 0.0 4.0 0.00 0.00 0.00 61 1019.9
20260901141114 70 221 0.0 5.0 0.00 0.00 0.00 60 1020.1
20260901140122 70 237 0.0 4.0 0.00 0.00 0.00 60 1020.1
20260901135118 71 219 0.0 4.0 0.00 0.00 0.00 60 1020.0
20260901134132 72 317 0.0 3.0 0.00 0.00 0.00 57 1019.9
20260901133139 72 116 1.0 5.0 0.00 0.00 0.00 56 1019.9
20260901132129 73 206 0.0 2.0 0.00 0.00 0.00 57 1020.0
20260901131119 72 214 0.0 4.0 0.00 0.04 0.00 56 1019.9